Location: Santaluz Observatory
(32.9930°N, 117.1510°W)
Time: 16:55:51
(UTC-07:00)

HST - Visible Passes

Search period start: 22 October 2014 00:00
Search period end: 01 November 2014 00:00
Orbit: 546 x 550 km, 28.5° (Epoch: 22 October)

Date Brightness Start Highest point End Pass type
(mag) Time Alt. Az. Time Alt. Az. Time Alt. Az.
22 Oct 3.1 19:45:06 10° S 19:46:26 13° S 19:46:26 13° S visible
23 Oct 2.7 19:37:07 10° SSW 19:39:46 18° SSE 19:39:46 18° SSE visible
24 Oct 2.3 19:29:22 10° SSW 19:32:38 22° SSE 19:33:03 22° SSE visible
25 Oct 2.1 19:21:45 10° SW 19:25:17 26° SSE 19:26:16 24° SE visible
26 Oct 2.0 19:14:13 10° SW 19:17:56 31° SSE 19:19:27 24° SE visible
27 Oct 1.8 19:06:45 10° SW 19:10:35 35° S 19:12:35 22° ESE visible
27 Oct 3.9 20:47:44 10° WSW 20:48:08 12° WSW 20:48:08 12° WSW visible
28 Oct 1.7 18:59:19 10° WSW 19:03:15 40° S 19:05:42 20° ESE visible
28 Oct 3.7 20:40:26 10° WSW 20:41:15 15° WSW 20:41:15 15° WSW visible
29 Oct 1.6 18:51:56 10° WSW 18:55:54 43° S 18:58:49 17° ESE visible
29 Oct 3.4 20:33:08 10° WSW 20:34:21 18° WSW 20:34:21 18° WSW visible
30 Oct 1.6 18:44:33 10° WSW 18:48:33 45° S 18:51:56 14° ESE visible
30 Oct 3.2 20:25:52 10° WSW 20:27:28 20° WSW 20:27:28 20° WSW visible
31 Oct 1.6 18:37:12 10° WSW 18:41:12 45° S 18:45:04 11° ESE visible
31 Oct 3.0 20:18:37 10° WSW 20:20:37 22° SW 20:20:37 22° SW visible
